When you browse on this site, cookies collect data to enhance your experience and personalize the content and advertising you see.
Visit our Privacy Policy to learn more. By continuing to use the site, you agree to this use of cookies and data.
  • în România
  • Lista ţărilor
  • Pe 7 zile
  • Temperatura apei
  • Meteo pe hartă
  • Widget-uri
  • user-avatar
    Intrare

    Meteo pe oră la Baku

    Astăzi, 22 August, Joi

    Timp Temperatura Precipitaţii Vânt Presiune Umiditate
    00:00 +31°C° 0 mm 2 m/s 758 mmHg 40%
    01:00 +30°C° 0 mm 2 m/s 758 mmHg 41%
    02:00 +30°C° 0 mm 2 m/s 757 mmHg 43%
    03:00 +29°C° 0 mm 2 m/s 758 mmHg 44%
    04:00 +29°C° 0 mm 2 m/s 758 mmHg 43%
    05:00 +30°C° 0 mm 1 m/s 758 mmHg 43%
    06:00 +30°C° 0 mm 1 m/s 758 mmHg 42%
    07:00 +31°C° 0 mm 1 m/s 758 mmHg 37%
    08:00 +34°C° 0 mm 2 m/s 758 mmHg 32%
    09:00 +35°C° 0 mm 2 m/s 758 mmHg 28%
    10:00 +36°C° 0 mm 2 m/s 757 mmHg 26%
    11:00 +37°C° 0 mm 3 m/s 757 mmHg 24%
    12:00 +37°C° 0 mm 3 m/s 757 mmHg 23%
    13:00 +37°C° 0 mm 3 m/s 757 mmHg 22%
    14:00 +38°C° 0 mm 3 m/s 757 mmHg 21%
    15:00 +38°C° 0 mm 3 m/s 756 mmHg 21%
    16:00 +37°C° 0 mm 2 m/s 756 mmHg 22%
    17:00 +37°C° 0 mm 2 m/s 756 mmHg 22%
    18:00 +36°C° 0 mm 2 m/s 756 mmHg 23%
    19:00 +35°C° 0 mm 2 m/s 756 mmHg 25%
    20:00 +35°C° 0 mm 2 m/s 757 mmHg 27%
    21:00 +33°C° 0 mm 1 m/s 757 mmHg 28%
    22:00 +32°C° 0 mm 1 m/s 757 mmHg 29%
    23:00 +32°C° 0 mm 1 m/s 757 mmHg 31%

    Mâine, 23 August, Vineri

    Timp Temperatura Precipitaţii Vânt Presiune Umiditate
    00:00 +31°C° 0 mm 1 m/s 757 mmHg 32%
    01:00 +31°C° 0 mm 1 m/s 757 mmHg 33%
    02:00 +31°C° 0 mm 1 m/s 757 mmHg 35%
    03:00 +28°C° 0 mm 0 m/s 757 mmHg 36%
    04:00 +28°C° 0 mm 0 m/s 757 mmHg 36%
    05:00 +29°C° 0 mm 0 m/s 757 mmHg 35%
    06:00 +29°C° 0 mm 0 m/s 757 mmHg 35%
    07:00 +32°C° 0 mm 1 m/s 757 mmHg 32%
    08:00 +33°C° 0 mm 1 m/s 757 mmHg 29%
    09:00 +35°C° 0 mm 1 m/s 758 mmHg 27%
    10:00 +37°C° 0 mm 2 m/s 757 mmHg 25%
    11:00 +38°C° 0 mm 2 m/s 757 mmHg 23%
    12:00 +39°C° 0 mm 3 m/s 757 mmHg 22%
    13:00 +40°C° 0 mm 4 m/s 757 mmHg 22%
    14:00 +40°C° 0 mm 4 m/s 757 mmHg 21%
    15:00 +40°C° 0 mm 5 m/s 757 mmHg 21%
    16:00 +40°C° 0 mm 4 m/s 757 mmHg 22%
    17:00 +38°C° 0 mm 3 m/s 756 mmHg 24%
    18:00 +37°C° 0 mm 3 m/s 756 mmHg 25%
    19:00 +36°C° 0 mm 3 m/s 756 mmHg 26%
    20:00 +36°C° 0 mm 3 m/s 757 mmHg 28%
    21:00 +35°C° 0 mm 3 m/s 757 mmHg 30%
    22:00 +34°C° 0 mm 2 m/s 757 mmHg 32%
    23:00 +32°C° 0 mm 2 m/s 757 mmHg 34%

    Poimâine, 24 August, Sâmbătă

    Timp Temperatura Precipitaţii Vânt Presiune Umiditate
    00:00 +32°C° 0 mm 1 m/s 757 mmHg 37%
    01:00 +32°C° 0 mm 1 m/s 757 mmHg 37%
    02:00 +31°C° 0 mm 1 m/s 757 mmHg 37%
    03:00 +31°C° 0 mm 1 m/s 756 mmHg 37%
    04:00 +31°C° 0 mm 2 m/s 757 mmHg 38%
    05:00 +31°C° 0 mm 2 m/s 757 mmHg 38%
    06:00 +31°C° 0 mm 3 m/s 757 mmHg 39%
    07:00 +34°C° 0 mm 4 m/s 757 mmHg 37%
    08:00 +35°C° 0 mm 5 m/s 757 mmHg 36%
    09:00 +36°C° 0 mm 6 m/s 758 mmHg 34%
    10:00 +37°C° 0 mm 5 m/s 758 mmHg 33%
    11:00 +37°C° 0 mm 5 m/s 758 mmHg 32%
    12:00 +37°C° 0 mm 5 m/s 757 mmHg 31%
    13:00 +39°C° 0 mm 5 m/s 757 mmHg 29%
    14:00 +38°C° 0 mm 4 m/s 757 mmHg 27%
    15:00 +38°C° 0 mm 4 m/s 757 mmHg 26%
    16:00 +38°C° 0 mm 4 m/s 757 mmHg 26%
    17:00 +37°C° 0 mm 4 m/s 757 mmHg 27%
    18:00 +36°C° 0 mm 4 m/s 757 mmHg 27%
    19:00 +36°C° 0 mm 4 m/s 757 mmHg 28%
    20:00 +35°C° 0 mm 3 m/s 757 mmHg 30%
    21:00 +34°C° 0 mm 3 m/s 758 mmHg 31%
    22:00 +34°C° 0 mm 3 m/s 758 mmHg 34%
    23:00 +33°C° 0 mm 4 m/s 758 mmHg 37%

    25 August, Duminică

    Timp Temperatura Precipitaţii Vânt Presiune Umiditate
    00:00 +32°C° 0 mm 4 m/s 758 mmHg 40%
    01:00 +32°C° 0 mm 4 m/s 757 mmHg 42%
    02:00 +31°C° 0 mm 3 m/s 757 mmHg 43%
    03:00 +30°C° 0 mm 3 m/s 757 mmHg 45%
    04:00 +30°C° 0 mm 3 m/s 758 mmHg 45%
    05:00 +30°C° 0 mm 3 m/s 758 mmHg 45%
    06:00 +30°C° 0 mm 3 m/s 758 mmHg 45%
    07:00 +31°C° 0 mm 3 m/s 758 mmHg 39%
    08:00 +34°C° 0 mm 3 m/s 759 mmHg 34%
    09:00 +35°C° 0 mm 3 m/s 759 mmHg 29%
    10:00 +35°C° 0 mm 4 m/s 759 mmHg 27%
    11:00 +36°C° 0 mm 4 m/s 759 mmHg 26%
    12:00 +36°C° 0 mm 4 m/s 758 mmHg 24%
    13:00 +36°C° 0 mm 4 m/s 758 mmHg 23%
    14:00 +36°C° 0 mm 4 m/s 758 mmHg 21%
    15:00 +36°C° 0 mm 5 m/s 758 mmHg 20%
    16:00 +36°C° 0 mm 4 m/s 758 mmHg 21%
    17:00 +35°C° 0 mm 4 m/s 757 mmHg 21%
    18:00 +34°C° 0 mm 3 m/s 757 mmHg 22%
    19:00 +34°C° 0 mm 3 m/s 758 mmHg 25%
    20:00 +33°C° 0 mm 3 m/s 758 mmHg 29%
    21:00 +31°C° 0 mm 3 m/s 758 mmHg 32%
    22:00 +30°C° 0 mm 3 m/s 758 mmHg 33%
    23:00 +30°C° 0 mm 2 m/s 758 mmHg 34%

    26 August, Luni

    Timp Temperatura Precipitaţii Vânt Presiune Umiditate
    00:00 +30°C° 0 mm 2 m/s 758 mmHg 35%
    01:00 +30°C° 0 mm 3 m/s 757 mmHg 35%
    02:00 +29°C° 0 mm 3 m/s 757 mmHg 35%
    03:00 +29°C° 0 mm 4 m/s 757 mmHg 36%
    04:00 +29°C° 0 mm 4 m/s 757 mmHg 40%
    05:00 +29°C° 0 mm 5 m/s 757 mmHg 45%
    06:00 +28°C° 0 mm 5 m/s 757 mmHg 50%
    07:00 +29°C° 0 mm 5 m/s 758 mmHg 47%
    08:00 +30°C° 0 mm 6 m/s 758 mmHg 44%
    09:00 +30°C° 0 mm 6 m/s 758 mmHg 41%
    10:00 +32°C° 0 mm 7 m/s 758 mmHg 39%
    11:00 +33°C° 0 mm 7 m/s 758 mmHg 38%
    12:00 +34°C° 0 mm 7 m/s 758 mmHg 36%
    13:00 +33°C° 0 mm 7 m/s 758 mmHg 38%
    14:00 +33°C° 0 mm 8 m/s 758 mmHg 40%
    15:00 +32°C° 0 mm 8 m/s 758 mmHg 42%
    16:00 +32°C° 0 mm 9 m/s 758 mmHg 44%
    17:00 +31°C° 0 mm 9 m/s 758 mmHg 46%
    18:00 +29°C° 0 mm 10 m/s 758 mmHg 48%
    19:00 +29°C° 0 mm 10 m/s 758 mmHg 49%
    20:00 +29°C° 0 mm 10 m/s 759 mmHg 49%
    21:00 +29°C° 0 mm 11 m/s 760 mmHg 49%
    22:00 +29°C° 0 mm 10 m/s 760 mmHg 47%
    23:00 +29°C° 0 mm 10 m/s 760 mmHg 45%

    27 August, Marţi

    Timp Temperatura Precipitaţii Vânt Presiune Umiditate
    00:00 +29°C° 0 mm 10 m/s 760 mmHg 43%
    01:00 +29°C° 0 mm 10 m/s 760 mmHg 47%
    02:00 +28°C° 0 mm 11 m/s 760 mmHg 51%
    03:00 +28°C° 0 mm 11 m/s 760 mmHg 55%
    04:00 +28°C° 0 mm 11 m/s 760 mmHg 57%
    05:00 +27°C° 0 mm 11 m/s 761 mmHg 59%
    06:00 +27°C° 0 mm 11 m/s 761 mmHg 61%
    07:00 +28°C° 0 mm 10 m/s 761 mmHg 59%
    08:00 +28°C° 0 mm 10 m/s 762 mmHg 56%
    09:00 +29°C° 0 mm 10 m/s 762 mmHg 53%
    10:00 +29°C° 0 mm 10 m/s 762 mmHg 53%
    11:00 +29°C° 0 mm 11 m/s 762 mmHg 52%
    12:00 +29°C° 0 mm 11 m/s 762 mmHg 52%
    13:00 +29°C° 0 mm 10 m/s 762 mmHg 52%
    14:00 +29°C° 0 mm 10 m/s 761 mmHg 52%
    15:00 +28°C° 0 mm 10 m/s 761 mmHg 51%
    16:00 +28°C° 0.1 mm 10 m/s 761 mmHg 52%
    17:00 +28°C° 0.1 mm 10 m/s 761 mmHg 54%
    18:00 +27°C° 0.1 mm 10 m/s 761 mmHg 55%
    19:00 +27°C° 0 mm 10 m/s 761 mmHg 55%
    20:00 +27°C° 0 mm 10 m/s 761 mmHg 55%
    21:00 +27°C° 0 mm 10 m/s 761 mmHg 56%
    22:00 +27°C° 0 mm 11 m/s 761 mmHg 56%
    23:00 +26°C° 0 mm 11 m/s 761 mmHg 56%
    Arată mai mult